DECAYED

COSMOS 2251 DEB, 34126 (Decayed)

Orbit data source: Space-Track

COSMOS 2251 DEB, 34126 was space debris in LEO originally from a launch on Wed, 16 Jun 1993 UTC launched from the Plesetsk Missile And Space Complex (PKMTR). The debris from Iridium 33, an American commercial communications satellite, has been tracked extensively since its accidental collision with the defunct Russian satellite Cosmos 2251 in 2009. This event, occurring at high speed in low Earth orbit (LEO), generated thousands of pieces of space debris, significantly increasing the risk of further collisions. The Iridium 33 debris cloud has impacted space traffic management and orbital debris mitigation strategies, making it a subject of ongoing study in space situational awareness.

Loading next visibility...
Identifier
34126, 1993-036KX
Orbit
Decayed
Country
Flag of CISCIS
Related business
Manufacturer
Unknown
Mission
Decayed spacecraft
Bus & Motor
Unknown
Mass
Unknown
Launch date (UTC)
1993-06-16 (33 years ago)
Launch vehicle
Unknown
Launch site
Plesetsk Missile And Space Complex (PKMTR)
Object type
Payload
Rocket body
Debris
Shape & HBR
Unknown shape, 0.1 m
Radar Cross Section
Medium (>0.1 m² and <1 m²)

Expand to show TLE details & history
Last TLE update: 1 year ago

TLE from 1 year ago
0 COSMOS 2251 DEB
1 34126U 93036KX  25094.45996147  .04980267  54152-1  94395-2 0  9998
2 34126  73.9527 118.7326 0010436 290.9880  69.0245 16.05777377865059
Epoch: 2025-04-04T11:02Z
TLE epoch observation values (Epoch: 2025-04-04T11:02:20.671Z)
Latitude
0.00005°
Longitude
120.12835°
Altitude
258.787 km
Speed
7.753 km/s
True Right ascension
07h 54m 55s
True Declination
0° 00' 00"
Sunlit
Object was in daylight at epoch
Visualization orbit readout
Latitude
Unknown
Longitude
Unknown
Altitude
Unknown
Speed
Unknown
Apparent Right ascension
Unknown
Apparent Declination
Unknown
Sunlit
N/A
Visualization observer readout
Local Sidereal Time
23:18:06
Azimuth
Unknown
Elevation
Unknown
Doppler factor
Unknown
Orbital elements
Apogee altitude
262.823 km
Perigee altitude
248.977 km
Semi-major axis
6,634.037 km
Eccentricity
0.00104
Inclination
73.9527°
RAAN
118.7326°
Arg. of periapsis
290.988°
True anomaly
69.13622°
Mean anomaly
69.0245°
Eccentric anomaly
69.08035°
Mean motion
4.01676 °/min
Orbital period
89.62 mins
BSTAR
0.0094395

Documentation

Showing up to 5 results
|